Regional Weather Roundup
Issued by NWS

Home | Current Version | Previous Version | Text Only | Print | Product List | Glossary On
Versions: 1 2 3 4 5 6 7 8 9 10 11 12 13 14 15 16 17 18 19 20 21 22 23 24 25 26 27 28 29 30 31 32 33 34 35 36 37 38 39 40 41 42 43 44 45 46 47 48 49 50
000
ASUS43 KLSX 301510
RWRMO

WEATHER SUMMARY FOR MISSOURI
NATIONAL WEATHER SERVICE SPRINGFIELD MO
1000 AM CDT SAT JUL 30 2016

NOTE: "FAIR" INDICATES FEW OR NO CLOUDS BELOW 12,000 FEET WITH NO
       SIGNIFICANT WEATHER AND/OR OBSTRUCTIONS TO VISIBILITY.
       CURRENT SKY AND/OR WEATHER CONDITIONS ARE NOT AVAILABLE FOR
       CHILLICOTHE AND FARMINGTON.

MOZ001>031-035>038-043-044-053-054-301600-
...NORTHERN AND WESTERN MISSOURI...

CITY           SKY/WX    TMP DP  RH WIND       PRES   REMARKS
KANSAS CTY INT MOSUNNY   74  63  68 E5        30.04R
KANSAS C DTWN  PTSUNNY   75  63  66 CALM      30.03R
LEE`S SUMMIT   MOSUNNY   76  65  68 N5        30.04R
ST JOSEPH      SUNNY     74  64  71 VRB5      30.03S
CHILLICOTHE      N/A     78  65  63 CALM      30.03S
KIRKSVILLE     PTSUNNY   73  64  73 NW6       30.02S

$$
MOZ066>068-077>081-088>096-101>105-301600-
...SOUTHWEST MISSOURI...

CITY           SKY/WX    TMP DP  RH WIND       PRES   REMARKS
SPRINGFIELD    SUNNY     80  69  69 S5        30.03S
JOPLIN         SUNNY     82  69  64 E5        30.02S
BRANSON        PTSUNNY   75  72  88 CALM      30.05S

$$
MOZ032>034-039>042-045>050-055>058-069>072-301600-
...CENTRAL MISSOURI...

CITY           SKY/WX    TMP DP  RH WIND       PRES   REMARKS
COLUMBIA       SUNNY     75  67  76 CALM      30.02S
JEFFERSON CITY SUNNY     78  68  71 CALM      30.00F
ROLLA          SUNNY     77  67  71 W6        30.02S
SEDALIA        MOSUNNY   77  66  68 CALM      30.03S
WHITEMAN AFB   MOSUNNY   75  68  80 N2        30.02R
OSAGE BEACH    PTSUNNY   76  71  85 S3        30.03S

$$
MOZ051-052-059>065-301600-
...EAST CENTRAL MISSOURI...

CITY           SKY/WX    TMP DP  RH WIND       PRES   REMARKS
ST LOUIS INTL  MOSUNNY   81  66  60 CALM      30.00S
SPIRIT OF STL  MOSUNNY   79  69  71 W3        29.98F
ST CHARLES     SUNNY     78  66  66 W6        29.98S

$$
MOZ072>076-082>087-097>100-106>115-301600-
...SOUTH CENTRAL AND SOUTHEAST MISSOURI...

CITY           SKY/WX    TMP DP  RH WIND       PRES   REMARKS
CAPE GIRARDEAU CLOUDY    72  70  93 W3        30.00R FOG
FARMINGTON     SUNNY     79  69  71 W3        30.02S
POPLAR BLUFF   CLOUDY    74  71  91 CALM      29.99F
WEST PLAINS    SUNNY     79  69  71 CALM      30.05S

$$




USA.gov is the U.S. government's official web portal to all federal, state and local government web resources and services.